STARLINK-1113 (44926 NORAD) Tracking and Keplerian Element Data

This shows tracking and keplerian element data for the satellite.

Feedback or suggestion? Click here.




ElementValue
Catalog44926
NameSTARLINK-1113
Epoch Orbit790
Epoch Day53.25001157
Epoch Year2020
RAAN175.8357
Inclination52.999
Eccentricity0.0001432
Argument of Perigee73.6642
Mean Anonmoly236.6376
Mean Motion15.05936537
Decay Rate-0.00045139
L11 44926U 20001N 20053.25001157 -.00045139 00000-0 -30689-2 0 9991
L22 44926 52.9990 175.8357 0001432 73.6642 236.6376 15.05936537 7908

Live tracking and technical data element details for STARLINK-1113 (NORAD 44926). STARLINK-1113 can be tracked NOW for your location showing map with azimuth and elevation plus other details from your city location.

Track the satellite on the map from your city or location and see movement details for azimuth, elevation, latitude, longitude, range, height, and movement on the map or in text.







IsCatalogInMostPopularTable: catalog: 44926, numindb: 17
Update: records affected: 1



GetName: 44926 STARLINK-1113

Hit Count: updated at: Mon, 24 Feb 2020 16:42:13 GMT